User: anonymous
Location: Oshawa
(43.9000°N, 78.8670°W)
Time: 16:01:02
(UTC-04:00)
Language:

Cosmos 1707 Rocket - Orbit

View from above orbital plane
View from above orbital plane
View from above satellite
View from above satellite

Ground track
Ground track

The orbit data is extracted from the following two-line orbital elements,

1 16327U 85113B   14204.96806372  .00000111  00000-0  10748-4 0  4047
2 16327 082.5358 002.3118 0018220 237.1534 273.2505 14.82814702544874
Epoch (UTC): 23 July 2014 23:14:00
Eccentricity: 0.0018220
inclination: 82.5358°
perigee height: 608 km
apogee height: 633 km
right ascension of ascending node: 2.3118°
argument of perigee: 237.1534°
revolutions per day: 14.82814702
mean anomaly at epoch: 273.2505°
orbit number at epoch: 54487

The dashed part of the orbit path shows where the satellite is in the earth's shadow,  

DLR